Flag for U.S.A. Weather past 2 weeks in Plano, Texas, U.S.A.

Now
74 °F

Passing clouds.


Feels Like: 75 °F
Forecast: 75 / 93 °F
Wind: 5 mph from South

Location: McKinney Municipal Airport

Current Time: Aug 31, 2015 at 4:25:08 AM

Latest Report: Aug 31, 2015 at 3:53 AM


Visibility: 10 mi

Pressure: 29.95 "Hg

Humidity: 76%

Dew point: 66 °F

Location of PlanoLocation

Historic Weather in Plano — Graph

°F

Plano temperature yesterday

Maximum temperature yesterday: 95 °F (at 2:53 PM)
Minimum temperature yesterday: 73 °F (at 2:53 AM)
Average temperature yesterday: 83 °F

Past Weeks' High & Low Weather Summary

 TemperatureHumidityPressure
High97 °F (Aug 18, 2:53 PM)93% (Aug 21, 3:53 AM)30.15 "Hg (Aug 21, 3:53 AM)
Low66 °F (Aug 19, 11:53 PM)21% (Aug 26, 2:53 PM)29.69 "Hg (Aug 18, 7:53 PM)
Average82 °F63%29.96 "Hg
* Reported Aug 16 2:53 AM — Aug 31 2:53 AM, Plano, Weather by CustomWeather, © 2015

Note: Actual official high and low records may vary slightly from our data, if they occured in-between our weather recording intervals... More about our weather records

Advertising

Plano weather history for previous 24 hours

 ConditionsComfort  
Time TempWeatherWind HumidityBarometerVisibility
2:53 AM
Mon, Aug 31
75 °FClear.5 mph71%29.95 "Hg10 mi
1:53 AM76 °FClear.7 mph72%29.94 "Hg10 mi
12:53 AM78 °FClear.8 mph64%29.93 "Hg10 mi
11:53 PM
Sun, Aug 30
79 °FClear.6 mph62%29.92 "Hg10 mi
10:53 PM82 °FClear.10 mph58%29.93 "Hg10 mi
9:53 PM83 °FClear.12 mph53%29.92 "Hg10 mi
8:53 PM85 °FSunny.10 mph48%29.92 "Hg10 mi
7:53 PM86 °FSunny.14 mph51%29.90 "Hg10 mi
6:53 PM88 °FSunny.15 mph48%29.90 "Hg10 mi
5:53 PM94 °FSunny.9 mph30%29.89 "Hg10 mi
4:53 PM94 °FSunny.8 mph30%29.90 "Hg10 mi
3:53 PM95 °FPartly sunny.13 mph28%29.92 "Hg10 mi
2:53 PM95 °FScattered clouds.13 mph31%29.94 "Hg10 mi
1:53 PM94 °FSunny.9 mph32%29.95 "Hg10 mi
12:53 PM92 °FSunny.15 mph36%29.97 "Hg10 mi
11:53 AM91 °FSunny.14 mph37%29.99 "Hg10 mi
10:53 AM86 °FSunny.7 mph49%30.00 "Hg10 mi
9:53 AM83 °FSunny.7 mph55%29.98 "Hg10 mi
8:53 AM79 °FSunny.6 mph65%29.97 "Hg10 mi
7:53 AM75 °FClear.6 mph74%29.96 "Hg10 mi
6:53 AM73 °FClear.9 mph76%29.95 "Hg10 mi
5:53 AM74 °FPassing clouds.7 mph74%29.95 "Hg10 mi
4:53 AM75 °FClear.8 mph74%29.93 "Hg10 mi
Weather by CustomWeather, © 2015

See weather overviewHow to use our weather pages